| time (UTC) | temp F | wind direction | speed MPH | gust MPH | rain 1hr in | rain 24hr in | rain mn in | humidity % | barometer mb |
| 20260902012024 | 65 | 217 | 1.0 | 7.0 | 0.00 | 0.01 | 0.01 | 81 | 1010.8 |
| 20260902011545 | 65 | 236 | 3.0 | 6.0 | 0.00 | 0.01 | 0.01 | 81 | 1010.8 |
| 20260902011029 | 65 | 246 | 1.0 | 5.0 | 0.00 | 0.01 | 0.01 | 82 | 1010.7 |
| 20260902010528 | 64 | 184 | 2.0 | 5.0 | 0.00 | 0.01 | 0.01 | 81 | 1010.6 |
| 20260902010049 | 64 | 223 | 1.0 | 4.0 | 0.00 | 0.01 | 0.01 | 82 | 1010.7 |
| 20260902005527 | 64 | 256 | 1.0 | 4.0 | 0.00 | 0.01 | 0.01 | 82 | 1010.6 |
| 20260902005026 | 64 | 213 | 1.0 | 5.0 | 0.00 | 0.01 | 0.01 | 82 | 1010.8 |
| 20260902004550 | 64 | 202 | 2.0 | 5.0 | 0.00 | 0.01 | 0.01 | 82 | 1010.7 |
| 20260902004024 | 64 | 257 | 2.0 | 12.0 | 0.00 | 0.01 | 0.01 | 82 | 1010.8 |
| 20260902003525 | 64 | 207 | 1.0 | 12.0 | 0.00 | 0.01 | 0.01 | 83 | 1010.8 |
| 20260902003048 | 64 | 269 | 4.0 | 9.0 | 0.00 | 0.01 | 0.01 | 82 | 1010.9 |
| 20260902002527 | 64 | 316 | 2.0 | 12.0 | 0.00 | 0.01 | 0.01 | 82 | 1010.9 |
| 20260902002031 | 64 | 296 | 5.0 | 13.0 | 0.00 | 0.01 | 0.01 | 80 | 1010.9 |
| 20260902001554 | 65 | 273 | 5.0 | 13.0 | 0.00 | 0.01 | 0.01 | 80 | 1010.8 |
| 20260902001024 | 66 | 264 | 4.0 | 12.0 | 0.00 | 0.01 | 0.01 | 79 | 1010.8 |
| 20260902000527 | 66 | 259 | 5.0 | 11.0 | 0.00 | 0.01 | 0.01 | 78 | 1010.8 |
| 20260902000050 | 65 | 199 | 4.0 | 10.0 | 0.00 | 0.01 | 0.01 | 79 | 1010.6 |
| 20260901235529 | 65 | 175 | 3.0 | 7.0 | 0.01 | 0.01 | 0.01 | 80 | 1010.7 |
| 20260901235029 | 66 | 211 | 3.0 | 7.0 | 0.01 | 0.01 | 0.01 | 79 | 1010.8 |
| 20260901234554 | 66 | 211 | 3.0 | 9.0 | 0.01 | 0.01 | 0.01 | 79 | 1010.8 |
| 20260901234029 | 66 | 218 | 4.0 | 9.0 | 0.01 | 0.01 | 0.01 | 79 | 1010.9 |
| 20260901233528 | 66 | 280 | 3.0 | 8.0 | 0.01 | 0.01 | 0.01 | 79 | 1010.8 |
| 20260901233051 | 66 | 250 | 4.0 | 7.0 | 0.01 | 0.01 | 0.01 | 80 | 1011.0 |
| 20260901232527 | 65 | 267 | 2.0 | 7.0 | 0.01 | 0.01 | 0.01 | 82 | 1010.9 |
| 20260901232027 | 65 | 237 | 2.0 | 7.0 | 0.01 | 0.01 | 0.01 | 85 | 1010.9 |
| 20260901231547 | 65 | 92 | 4.0 | 6.0 | 0.01 | 0.01 | 0.01 | 85 | 1011.0 |
| 20260901231028 | 65 | 110 | 1.0 | 6.0 | 0.01 | 0.01 | 0.01 | 87 | 1010.9 |
| 20260901230528 | 65 | 116 | 3.0 | 6.0 | 0.01 | 0.01 | 0.01 | 86 | 1010.8 |
| 20260901225529 | 65 | 0 | 0.0 | 3.0 | 0.00 | 0.00 | 0.00 | 84 | 1010.9 |
| 20260901225029 | 65 | 243 | 2.0 | 6.0 | 0.00 | 0.00 | 0.00 | 84 | 1010.9 |
| 20260901224553 | 65 | 231 | 2.0 | 7.0 | 0.00 | 0.00 | 0.00 | 84 | 1010.8 |
| 20260901224031 | 65 | 161 | 4.0 | 7.0 | 0.00 | 0.00 | 0.00 | 83 | 1010.8 |
| 20260901223527 | 65 | 150 | 3.0 | 7.0 | 0.00 | 0.00 | 0.00 | 82 | 1010.8 |
| 20260901223101 | 65 | 174 | 2.0 | 7.0 | 0.00 | 0.00 | 0.00 | 83 | 1010.8 |
| 20260901222528 | 64 | 149 | 2.0 | 7.0 | 0.00 | 0.00 | 0.00 | 84 | 1010.9 |
| 20260901222028 | 64 | 206 | 4.0 | 7.0 | 0.00 | 0.00 | 0.00 | 84 | 1010.9 |
| 20260901221548 | 64 | 148 | 3.0 | 11.0 | 0.00 | 0.00 | 0.00 | 84 | 1010.9 |
| 20260901221031 | 64 | 189 | 6.0 | 11.0 | 0.00 | 0.00 | 0.00 | 81 | 1010.9 |
| 20260901220530 | 65 | 188 | 5.0 | 9.0 | 0.00 | 0.00 | 0.00 | 80 | 1010.8 |
| 20260901220111 | 65 | 123 | 6.0 | 9.0 | 0.00 | 0.00 | 0.00 | 79 | 1010.8 |
| 20260901215527 | 65 | 136 | 5.0 | 9.0 | 0.00 | 0.00 | 0.00 | 80 | 1010.8 |
| 20260901215028 | 65 | 171 | 3.0 | 7.0 | 0.00 | 0.00 | 0.00 | 81 | 1010.9 |
| 20260901214549 | 64 | 119 | 1.0 | 5.0 | 0.00 | 0.00 | 0.00 | 82 | 1010.9 |
| 20260901214029 | 64 | 286 | 2.0 | 5.0 | 0.00 | 0.00 | 0.00 | 84 | 1010.9 |
| 20260901213528 | 63 | 256 | 0.0 | 1.0 | 0.00 | 0.00 | 0.00 | 86 | 1011.0 |
| 20260901213051 | 63 | 19 | 0.0 | 2.0 | 0.00 | 0.00 | 0.00 | 85 | 1011.0 |
| 20260901212528 | 63 | 278 | 0.0 | 4.0 | 0.00 | 0.00 | 0.00 | 85 | 1011.2 |
| 20260901212029 | 63 | 0 | 1.0 | 4.0 | 0.00 | 0.00 | 0.00 | 85 | 1011.2 |
| 20260901211544 | 63 | 259 | 1.0 | 12.0 | 0.00 | 0.00 | 0.00 | 84 | 1011.3 |
| 20260901211027 | 63 | 285 | 4.0 | 12.0 | 0.00 | 0.00 | 0.00 | 83 | 1011.3 |
| 20260901210527 | 64 | 269 | 3.0 | 9.0 | 0.00 | 0.00 | 0.00 | 81 | 1011.3 |
| 20260901210049 | 65 | 243 | 4.0 | 11.0 | 0.00 | 0.00 | 0.00 | 79 | 1011.3 |
| 20260901205528 | 66 | 173 | 6.0 | 11.0 | 0.00 | 0.00 | 0.00 | 78 | 1011.1 |
| 20260901205028 | 66 | 140 | 6.0 | 11.0 | 0.00 | 0.00 | 0.00 | 78 | 1011.1 |
| 20260901204548 | 66 | 146 | 5.0 | 8.0 | 0.00 | 0.00 | 0.00 | 78 | 1011.1 |
| 20260901204056 | 66 | 212 | 3.0 | 7.0 | 0.00 | 0.00 | 0.00 | 79 | 1011.1 |
| 20260901203524 | 66 | 178 | 5.0 | 8.0 | 0.00 | 0.00 | 0.00 | 80 | 1011.2 |
| 20260901203052 | 65 | 159 | 2.0 | 9.0 | 0.00 | 0.00 | 0.00 | 83 | 1011.2 |
| 20260901202527 | 64 | 194 | 5.0 | 9.0 | 0.00 | 0.00 | 0.00 | 83 | 1011.3 |
| 20260901202027 | 64 | 157 | 3.0 | 6.0 | 0.00 | 0.00 | 0.00 | 85 | 1011.3 |
| 20260901201556 | 64 | 223 | 3.0 | 5.0 | 0.00 | 0.00 | 0.00 | 85 | 1011.3 |
| 20260901201026 | 63 | 128 | 3.0 | 6.0 | 0.00 | 0.00 | 0.00 | 86 | 1011.3 |
| 20260901200525 | 64 | 128 | 5.0 | 6.0 | 0.00 | 0.00 | 0.00 | 84 | 1011.3 |
| 20260901200049 | 64 | 169 | 2.0 | 5.0 | 0.00 | 0.00 | 0.00 | 83 | 1011.3 |
| 20260901195525 | 64 | 221 | 3.0 | 5.0 | 0.00 | 0.00 | 0.00 | 82 | 1011.3 |
| 20260901195026 | 64 | 212 | 3.0 | 6.0 | 0.00 | 0.00 | 0.00 | 81 | 1011.2 |
| 20260901194550 | 64 | 232 | 3.0 | 6.0 | 0.00 | 0.00 | 0.00 | 80 | 1011.3 |
| 20260901194028 | 65 | 256 | 1.0 | 6.0 | 0.00 | 0.00 | 0.00 | 80 | 1011.2 |
| 20260901193523 | 65 | 242 | 2.0 | 6.0 | 0.00 | 0.00 | 0.00 | 80 | 1011.2 |
| 20260901193050 | 65 | 203 | 1.0 | 5.0 | 0.00 | 0.00 | 0.00 | 80 | 1011.3 |
| 20260901192524 | 65 | 217 | 2.0 | 6.0 | 0.00 | 0.00 | 0.00 | 80 | 1011.2 |
| 20260901192025 | 65 | 229 | 3.0 | 6.0 | 0.00 | 0.00 | 0.00 | 79 | 1011.3 |
| 20260901191604 | 65 | 223 | 2.0 | 7.0 | 0.00 | 0.00 | 0.00 | 80 | 1011.2 |
| 20260901191024 | 65 | 250 | 3.0 | 7.0 | 0.00 | 0.00 | 0.00 | 79 | 1011.4 |
| 20260901190528 | 65 | 217 | 2.0 | 6.0 | 0.00 | 0.00 | 0.00 | 79 | 1011.5 |
| 20260901190054 | 65 | 217 | 3.0 | 7.0 | 0.00 | 0.00 | 0.00 | 79 | 1011.3 |
| 20260901185527 | 65 | 212 | 4.0 | 8.0 | 0.00 | 0.00 | 0.00 | 79 | 1011.4 |
| 20260901185027 | 65 | 157 | 4.0 | 8.0 | 0.00 | 0.00 | 0.00 | 79 | 1011.3 |
| 20260901184609 | 65 | 198 | 3.0 | 9.0 | 0.00 | 0.00 | 0.00 | 79 | 1011.4 |
| 20260901184027 | 65 | 229 | 2.0 | 10.0 | 0.00 | 0.00 | 0.00 | 79 | 1011.5 |
| 20260901183531 | 65 | 219 | 5.0 | 11.0 | 0.00 | 0.00 | 0.00 | 78 | 1011.4 |
| 20260901183053 | 65 | 159 | 5.0 | 11.0 | 0.00 | 0.00 | 0.00 | 79 | 1011.5 |
| 20260901182530 | 65 | 266 | 4.0 | 10.0 | 0.00 | 0.00 | 0.00 | 78 | 1011.5 |
| 20260901182029 | 65 | 169 | 4.0 | 9.0 | 0.00 | 0.00 | 0.00 | 78 | 1011.5 |
| 20260901181557 | 65 | 190 | 5.0 | 10.0 | 0.00 | 0.00 | 0.00 | 78 | 1011.4 |
| 20260901181023 | 65 | 229 | 6.0 | 10.0 | 0.00 | 0.00 | 0.00 | 78 | 1011.4 |
| 20260901180531 | 65 | 211 | 5.0 | 10.0 | 0.00 | 0.00 | 0.00 | 78 | 1011.3 |
| 20260901180046 | 65 | 165 | 5.0 | 10.0 | 0.00 | 0.00 | 0.00 | 78 | 1011.3 |
| 20260901175522 | 65 | 214 | 5.0 | 10.0 | 0.00 | 0.00 | 0.00 | 78 | 1011.3 |
| 20260901175024 | 65 | 196 | 4.0 | 8.0 | 0.00 | 0.00 | 0.00 | 79 | 1011.2 |
| 20260901174556 | 65 | 218 | 2.0 | 10.0 | 0.00 | 0.00 | 0.00 | 80 | 1011.2 |
| 20260901174024 | 65 | 239 | 5.0 | 11.0 | 0.00 | 0.00 | 0.00 | 79 | 1011.1 |
| 20260901173527 | 65 | 186 | 6.0 | 11.0 | 0.00 | 0.00 | 0.00 | 80 | 1011.2 |
| 20260901173047 | 65 | 213 | 4.0 | 9.0 | 0.00 | 0.00 | 0.00 | 80 | 1011.1 |
| 20260901172527 | 65 | 171 | 5.0 | 9.0 | 0.00 | 0.00 | 0.00 | 80 | 1011.2 |
| 20260901172024 | 64 | 184 | 6.0 | 11.0 | 0.00 | 0.00 | 0.00 | 81 | 1011.2 |
| 20260901171544 | 64 | 175 | 7.0 | 11.0 | 0.00 | 0.00 | 0.00 | 81 | 1011.2 |
| 20260901171028 | 64 | 137 | 6.0 | 10.0 | 0.00 | 0.00 | 0.00 | 81 | 1011.2 |
| 20260901170526 | 64 | 162 | 6.0 | 10.0 | 0.00 | 0.00 | 0.00 | 81 | 1011.1 |
| 20260901170051 | 64 | 232 | 5.0 | 10.0 | 0.00 | 0.00 | 0.00 | 82 | 1011.0 |
| 20260901165523 | 63 | 198 | 7.0 | 10.0 | 0.00 | 0.00 | 0.00 | 82 | 1011.0 |
| 20260901165025 | 63 | 192 | 5.0 | 8.0 | 0.00 | 0.00 | 0.00 | 83 | 1011.2 |
| 20260901164550 | 63 | 204 | 5.0 | 10.0 | 0.00 | 0.00 | 0.00 | 83 | 1011.1 |
| 20260901164024 | 63 | 161 | 5.0 | 10.0 | 0.00 | 0.00 | 0.00 | 84 | 1011.1 |
| 20260901163528 | 63 | 200 | 5.0 | 10.0 | 0.00 | 0.00 | 0.00 | 84 | 1011.2 |
| 20260901163046 | 63 | 186 | 5.0 | 9.0 | 0.00 | 0.00 | 0.00 | 85 | 1011.1 |
| 20260901162523 | 62 | 182 | 5.0 | 8.0 | 0.00 | 0.00 | 0.00 | 86 | 1011.1 |
| 20260901162026 | 62 | 207 | 3.0 | 8.0 | 0.00 | 0.00 | 0.00 | 86 | 1011.2 |
| 20260901161610 | 62 | 213 | 5.0 | 8.0 | 0.00 | 0.00 | 0.00 | 86 | 1011.2 |
| 20260901161032 | 62 | 182 | 5.0 | 7.0 | 0.00 | 0.00 | 0.00 | 87 | 1011.1 |
| 20260901160524 | 62 | 221 | 2.0 | 6.0 | 0.00 | 0.00 | 0.00 | 88 | 1011.3 |
| 20260901160107 | 61 | 216 | 3.0 | 7.0 | 0.00 | 0.00 | 0.00 | 88 | 1011.3 |
| 20260901155524 | 61 | 213 | 3.0 | 7.0 | 0.00 | 0.00 | 0.00 | 88 | 1011.2 |
| 20260901155023 | 61 | 202 | 4.0 | 6.0 | 0.00 | 0.00 | 0.00 | 88 | 1011.2 |
| 20260901154550 | 61 | 227 | 3.0 | 6.0 | 0.00 | 0.00 | 0.00 | 89 | 1011.3 |
| 20260901154024 | 61 | 188 | 4.0 | 6.0 | 0.00 | 0.00 | 0.00 | 89 | 1011.2 |
| 20260901153525 | 61 | 142 | 4.0 | 6.0 | 0.00 | 0.00 | 0.00 | 90 | 1011.2 |
| 20260901153100 | 60 | 179 | 4.0 | 8.0 | 0.00 | 0.00 | 0.00 | 90 | 1011.3 |
| 20260901152524 | 60 | 178 | 5.0 | 8.0 | 0.00 | 0.00 | 0.00 | 91 | 1011.2 |
| 20260901152024 | 60 | 167 | 4.0 | 7.0 | 0.00 | 0.00 | 0.00 | 91 | 1011.3 |
| 20260901151550 | 60 | 184 | 4.0 | 6.0 | 0.00 | 0.00 | 0.00 | 92 | 1011.3 |
| 20260901151028 | 60 | 219 | 3.0 | 6.0 | 0.00 | 0.00 | 0.00 | 92 | 1011.4 |
| 20260901150531 | 60 | 209 | 3.0 | 8.0 | 0.00 | 0.00 | 0.00 | 93 | 1011.2 |
| 20260901150044 | 60 | 200 | 4.0 | 8.0 | 0.00 | 0.00 | 0.00 | 94 | 1011.1 |
| 20260901145526 | 59 | 182 | 4.0 | 7.0 | 0.00 | 0.00 | 0.00 | 95 | 1011.1 |
| 20260901145026 | 59 | 207 | 3.0 | 4.0 | 0.00 | 0.00 | 0.00 | 95 | 1011.2 |
| 20260901144551 | 58 | 213 | 2.0 | 5.0 | 0.00 | 0.00 | 0.00 | 96 | 1011.1 |
| 20260901144025 | 58 | 192 | 3.0 | 5.0 | 0.00 | 0.00 | 0.00 | 96 | 1011.0 |
| 20260901143526 | 57 | 187 | 2.0 | 5.0 | 0.00 | 0.00 | 0.00 | 96 | 1011.1 |
| 20260901143111 | 57 | 187 | 3.0 | 5.0 | 0.00 | 0.00 | 0.00 | 96 | 1011.0 |
| 20260901142524 | 57 | 186 | 3.0 | 5.0 | 0.00 | 0.00 | 0.00 | 96 | 1011.1 |
| 20260901142028 | 57 | 171 | 2.0 | 5.0 | 0.00 | 0.00 | 0.00 | 97 | 1011.0 |
| 20260901141546 | 57 | 184 | 2.0 | 4.0 | 0.00 | 0.00 | 0.00 | 96 | 1011.1 |
| 20260901141031 | 57 | 198 | 2.0 | 2.0 | 0.00 | 0.00 | 0.00 | 97 | 1011.1 |
| 20260901140527 | 56 | 192 | 1.0 | 2.0 | 0.00 | 0.00 | 0.00 | 97 | 1011.0 |
| 20260901140057 | 56 | 134 | 0.0 | 2.0 | 0.00 | 0.00 | 0.00 | 96 | 1011.0 |
| 20260901135527 | 56 | 133 | 1.0 | 4.0 | 0.00 | 0.00 | 0.00 | 96 | 1010.9 |
| 20260901135029 | 56 | 124 | 2.0 | 4.0 | 0.00 | 0.00 | 0.00 | 97 | 1010.8 |
| 20260901134554 | 57 | 192 | 2.0 | 3.0 | 0.00 | 0.00 | 0.00 | 97 | 1010.9 |
| 20260901134027 | 56 | 208 | 2.0 | 4.0 | 0.00 | 0.00 | 0.00 | 97 | 1010.8 |
| 20260901133524 | 56 | 193 | 2.0 | 4.0 | 0.00 | 0.00 | 0.00 | 97 | 1010.9 |
| 20260901133047 | 56 | 176 | 2.0 | 4.0 | 0.00 | 0.00 | 0.00 | 97 | 1010.9 |
| 20260901132528 | 56 | 173 | 2.0 | 4.0 | 0.00 | 0.00 | 0.00 | 97 | 1010.9 |
| 20260901132028 | 56 | 182 | 2.0 | 4.0 | 0.00 | 0.00 | 0.00 | 97 | 1010.9 |
| 20260901131545 | 56 | 155 | 2.0 | 4.0 | 0.00 | 0.00 | 0.00 | 97 | 1010.8 |
| 20260901131027 | 56 | 192 | 2.0 | 4.0 | 0.00 | 0.00 | 0.00 | 97 | 1010.9 |
| 20260901130529 | 56 | 152 | 2.0 | 5.0 | 0.00 | 0.00 | 0.00 | 98 | 1010.9 |
| 20260901130052 | 56 | 178 | 2.0 | 6.0 | 0.00 | 0.00 | 0.00 | 98 | 1011.0 |
| 20260901125527 | 56 | 191 | 4.0 | 6.0 | 0.00 | 0.00 | 0.00 | 98 | 1010.8 |
| 20260901125027 | 56 | 173 | 3.0 | 5.0 | 0.00 | 0.00 | 0.00 | 98 | 1010.9 |
| 20260901124550 | 56 | 186 | 2.0 | 5.0 | 0.00 | 0.00 | 0.00 | 98 | 1010.8 |
| 20260901124027 | 55 | 190 | 3.0 | 5.0 | 0.00 | 0.00 | 0.00 | 98 | 1010.9 |
| 20260901123528 | 55 | 165 | 2.0 | 5.0 | 0.00 | 0.00 | 0.00 | 98 | 1010.8 |
| 20260901123056 | 55 | 141 | 3.0 | 4.0 | 0.00 | 0.00 | 0.00 | 98 | 1010.8 |
| 20260901122528 | 54 | 140 | 1.0 | 2.0 | 0.00 | 0.00 | 0.00 | 98 | 1010.9 |
| 20260901122030 | 54 | 153 | 2.0 | 3.0 | 0.00 | 0.00 | 0.00 | 98 | 1010.9 |
| 20260901121556 | 53 | 157 | 1.0 | 4.0 | 0.00 | 0.00 | 0.00 | 98 | 1010.9 |
| 20260901121028 | 53 | 123 | 2.0 | 4.0 | 0.00 | 0.00 | 0.00 | 98 | 1010.7 |
| 20260901120526 | 53 | 178 | 1.0 | 4.0 | 0.00 | 0.00 | 0.00 | 98 | 1010.7 |
| 20260901120100 | 52 | 161 | 1.0 | 4.0 | 0.00 | 0.00 | 0.00 | 97 | 1010.8 |
| 20260901115528 | 53 | 154 | 2.0 | 4.0 | 0.00 | 0.00 | 0.00 | 98 | 1010.8 |
| 20260901115024 | 52 | 248 | 1.0 | 3.0 | 0.00 | 0.00 | 0.00 | 97 | 1010.6 |
| 20260901114550 | 52 | 134 | 1.0 | 4.0 | 0.00 | 0.00 | 0.00 | 98 | 1010.6 |
| 20260901114025 | 52 | 155 | 2.0 | 4.0 | 0.00 | 0.00 | 0.00 | 98 | 1010.6 |
| 20260901113525 | 52 | 126 | 1.0 | 2.0 | 0.00 | 0.00 | 0.00 | 98 | 1010.5 |
| 20260901113045 | 51 | 109 | 1.0 | 2.0 | 0.00 | 0.00 | 0.00 | 98 | 1010.5 |
| 20260901112526 | 51 | 115 | 1.0 | 2.0 | 0.00 | 0.00 | 0.00 | 98 | 1010.5 |
| 20260901112030 | 50 | 153 | 0.0 | 1.0 | 0.00 | 0.00 | 0.00 | 97 | 1010.5 |
| 20260901111602 | 50 | 0 | 0.0 | 1.0 | 0.00 | 0.00 | 0.00 | 97 | 1010.4 |
| 20260901111028 | 51 | 0 | 0.0 | 1.0 | 0.00 | 0.00 | 0.00 | 97 | 1010.2 |
| 20260901110524 | 51 | 0 | 0.0 | 1.0 | 0.00 | 0.00 | 0.00 | 97 | 1010.1 |
| 20260901110049 | 51 | 0 | 0.0 | 2.0 | 0.00 | 0.00 | 0.00 | 97 | 1010.1 |
| 20260901105525 | 51 | 129 | 1.0 | 2.0 | 0.00 | 0.00 | 0.00 | 98 | 1010.2 |
| 20260901105026 | 51 | 129 | 1.0 | 2.0 | 0.00 | 0.00 | 0.00 | 98 | 1010.2 |
| 20260901104549 | 50 | 0 | 0.0 | 1.0 | 0.00 | 0.00 | 0.00 | 97 | 1010.2 |
| 20260901104026 | 50 | 119 | 0.0 | 1.0 | 0.00 | 0.00 | 0.00 | 97 | 1010.1 |
| 20260901103526 | 50 | 119 | 0.0 | 1.0 | 0.00 | 0.00 | 0.00 | 97 | 1010.1 |
| 20260901103053 | 50 | 119 | 1.0 | 1.0 | 0.00 | 0.00 | 0.00 | 97 | 1010.3 |
| 20260901102527 | 50 | 0 | 0.0 | 1.0 | 0.00 | 0.00 | 0.00 | 97 | 1010.1 |
| 20260901102024 | 50 | 119 | 0.0 | 1.0 | 0.00 | 0.00 | 0.00 | 97 | 1010.0 |
| 20260901101549 | 50 | 0 | 0.0 | 1.0 | 0.00 | 0.00 | 0.00 | 97 | 1010.0 |
| 20260901101024 | 50 | 119 | 0.0 | 1.0 | 0.00 | 0.00 | 0.00 | 97 | 1010.0 |
| 20260901100524 | 50 | 119 | 0.0 | 1.0 | 0.00 | 0.00 | 0.00 | 97 | 1009.9 |
| 20260901100054 | 49 | 119 | 0.0 | 1.0 | 0.00 | 0.00 | 0.00 | 97 | 1009.9 |
| 20260901095523 | 49 | 0 | 0.0 | 0.0 | 0.00 | 0.00 | 0.00 | 96 | 1009.9 |
| 20260901095024 | 50 | 0 | 0.0 | 0.0 | 0.00 | 0.00 | 0.00 | 96 | 1009.8 |
| 20260901094545 | 50 | 0 | 0.0 | 0.0 | 0.00 | 0.00 | 0.00 | 96 | 1009.7 |
| 20260901094025 | 50 | 0 | 0.0 | 0.0 | 0.00 | 0.00 | 0.00 | 96 | 1009.8 |
| 20260901093523 | 50 | 0 | 0.0 | 1.0 | 0.00 | 0.00 | 0.00 | 96 | 1009.8 |
| 20260901093052 | 50 | 0 | 0.0 | 1.0 | 0.00 | 0.00 | 0.00 | 97 | 1009.8 |
| 20260901092526 | 50 | 0 | 0.0 | 0.0 | 0.00 | 0.00 | 0.00 | 96 | 1009.8 |
| 20260901092024 | 50 | 0 | 0.0 | 0.0 | 0.00 | 0.00 | 0.00 | 96 | 1009.8 |
| 20260901091550 | 50 | 0 | 0.0 | 0.0 | 0.00 | 0.00 | 0.00 | 97 | 1009.8 |
| 20260901091024 | 50 | 0 | 0.0 | 0.0 | 0.00 | 0.00 | 0.00 | 96 | 1009.9 |
| 20260901090523 | 50 | 0 | 0.0 | 0.0 | 0.00 | 0.00 | 0.00 | 96 | 1009.9 |
| 20260901090050 | 50 | 0 | 0.0 | 0.0 | 0.00 | 0.00 | 0.00 | 96 | 1009.8 |
| 20260901085524 | 50 | 0 | 0.0 | 0.0 | 0.00 | 0.00 | 0.00 | 97 | 1009.8 |
| 20260901085028 | 50 | 0 | 0.0 | 0.0 | 0.00 | 0.00 | 0.00 | 96 | 1009.9 |
| 20260901084540 | 50 | 0 | 0.0 | 0.0 | 0.00 | 0.00 | 0.00 | 96 | 1009.9 |
| 20260901084027 | 51 | 0 | 0.0 | 0.0 | 0.00 | 0.00 | 0.00 | 96 | 1009.9 |
| 20260901083526 | 51 | 0 | 0.0 | 0.0 | 0.00 | 0.00 | 0.00 | 96 | 1009.8 |
| 20260901083053 | 51 | 0 | 0.0 | 1.0 | 0.00 | 0.00 | 0.00 | 96 | 1009.8 |
| 20260901082526 | 51 | 0 | 0.0 | 1.0 | 0.00 | 0.00 | 0.00 | 96 | 1009.9 |
| 20260901082024 | 51 | 0 | 0.0 | 1.0 | 0.00 | 0.00 | 0.00 | 96 | 1009.8 |
| 20260901081548 | 51 | 119 | 0.0 | 1.0 | 0.00 | 0.00 | 0.00 | 96 | 1009.9 |
| 20260901081024 | 51 | 0 | 0.0 | 0.0 | 0.00 | 0.00 | 0.00 | 95 | 1009.9 |
| 20260901080524 | 52 | 0 | 0.0 | 0.0 | 0.00 | 0.00 | 0.00 | 96 | 1009.7 |
| 20260901080048 | 52 | 0 | 0.0 | 1.0 | 0.00 | 0.00 | 0.00 | 95 | 1009.6 |
| 20260901075528 | 52 | 0 | 0.0 | 1.0 | 0.00 | 0.00 | 0.00 | 95 | 1009.6 |
| 20260901075029 | 53 | 119 | 0.0 | 1.0 | 0.00 | 0.00 | 0.00 | 96 | 1009.6 |
| 20260901074552 | 52 | 0 | 0.0 | 1.0 | 0.00 | 0.00 | 0.00 | 96 | 1009.6 |
| 20260901074028 | 53 | 0 | 0.0 | 1.0 | 0.00 | 0.00 | 0.00 | 96 | 1009.5 |
| 20260901073526 | 52 | 0 | 0.0 | 0.0 | 0.00 | 0.00 | 0.00 | 95 | 1009.5 |
| 20260901073051 | 53 | 0 | 0.0 | 0.0 | 0.00 | 0.00 | 0.00 | 95 | 1009.5 |
| 20260901072528 | 53 | 0 | 0.0 | 0.0 | 0.00 | 0.00 | 0.00 | 95 | 1009.4 |
| 20260901072027 | 53 | 0 | 0.0 | 0.0 | 0.00 | 0.00 | 0.00 | 95 | 1009.6 |
| 20260901071551 | 53 | 0 | 0.0 | 0.0 | 0.00 | 0.00 | 0.00 | 95 | 1009.5 |
| 20260901071024 | 53 | 0 | 0.0 | 1.0 | 0.00 | 0.00 | 0.00 | 95 | 1009.5 |
| 20260901070525 | 53 | 0 | 0.0 | 1.0 | 0.00 | 0.00 | 0.00 | 95 | 1009.6 |
| 20260901070100 | 53 | 119 | 0.0 | 1.0 | 0.00 | 0.00 | 0.00 | 95 | 1009.5 |
| 20260901065527 | 54 | 0 | 0.0 | 1.0 | 0.00 | 0.00 | 0.00 | 95 | 1009.5 |
| 20260901065026 | 54 | 119 | 0.0 | 1.0 | 0.00 | 0.00 | 0.00 | 94 | 1009.4 |
| 20260901064552 | 54 | 119 | 0.0 | 1.0 | 0.00 | 0.00 | 0.00 | 94 | 1009.4 |
| 20260901064031 | 54 | 0 | 0.0 | 0.0 | 0.00 | 0.00 | 0.00 | 95 | 1009.3 |
| 20260901063525 | 54 | 0 | 0.0 | 0.0 | 0.00 | 0.00 | 0.00 | 94 | 1009.2 |
| 20260901063104 | 54 | 0 | 0.0 | 0.0 | 0.00 | 0.00 | 0.00 | 94 | 1009.2 |
| 20260901062524 | 54 | 0 | 0.0 | 0.0 | 0.00 | 0.00 | 0.00 | 93 | 1009.1 |
| 20260901062029 | 55 | 0 | 0.0 | 0.0 | 0.00 | 0.00 | 0.00 | 94 | 1009.1 |
| 20260901061559 | 55 | 0 | 0.0 | 1.0 | 0.00 | 0.00 | 0.00 | 94 | 1009.1 |
| 20260901061027 | 55 | 0 | 0.0 | 1.0 | 0.00 | 0.00 | 0.00 | 93 | 1009.0 |
| 20260901060525 | 55 | 119 | 0.0 | 1.0 | 0.00 | 0.00 | 0.00 | 93 | 1009.1 |
| 20260901060100 | 55 | 0 | 0.0 | 0.0 | 0.00 | 0.00 | 0.00 | 93 | 1009.2 |
| 20260901055528 | 56 | 0 | 0.0 | 0.0 | 0.00 | 0.00 | 0.00 | 93 | 1009.0 |
| 20260901055028 | 56 | 0 | 0.0 | 0.0 | 0.00 | 0.00 | 0.00 | 93 | 1009.0 |
| 20260901054551 | 56 | 0 | 0.0 | 0.0 | 0.00 | 0.00 | 0.00 | 92 | 1009.0 |
| 20260901054025 | 56 | 0 | 0.0 | 0.0 | 0.00 | 0.00 | 0.00 | 92 | 1009.1 |
| 20260901053528 | 57 | 0 | 0.0 | 0.0 | 0.00 | 0.00 | 0.00 | 92 | 1009.2 |
| 20260901053104 | 57 | 0 | 0.0 | 0.0 | 0.00 | 0.00 | 0.00 | 92 | 1009.1 |
| 20260901052530 | 57 | 0 | 0.0 | 0.0 | 0.00 | 0.00 | 0.00 | 91 | 1009.1 |
| 20260901052028 | 57 | 0 | 0.0 | 0.0 | 0.00 | 0.00 | 0.00 | 91 | 1009.2 |
| 20260901051551 | 57 | 0 | 0.0 | 0.0 | 0.00 | 0.00 | 0.00 | 91 | 1009.2 |
| 20260901051028 | 57 | 0 | 0.0 | 0.0 | 0.00 | 0.00 | 0.00 | 90 | 1009.1 |
| 20260901050528 | 57 | 0 | 0.0 | 1.0 | 0.00 | 0.00 | 0.00 | 89 | 1009.2 |
| 20260901050050 | 58 | 0 | 0.0 | 1.0 | 0.00 | 0.00 | 0.00 | 89 | 1009.1 |
| 20260901045530 | 58 | 0 | 0.0 | 1.0 | 0.00 | 0.00 | 0.00 | 89 | 1009.2 |
| 20260901045028 | 58 | 0 | 0.0 | 0.0 | 0.00 | 0.00 | 0.00 | 89 | 1009.2 |
| 20260901044559 | 59 | 0 | 0.0 | 1.0 | 0.00 | 0.00 | 0.00 | 88 | 1009.2 |
| 20260901044024 | 59 | 0 | 0.0 | 1.0 | 0.00 | 0.00 | 0.00 | 88 | 1009.1 |
| 20260901043528 | 60 | 0 | 0.0 | 1.0 | 0.00 | 0.00 | 0.00 | 87 | 1009.0 |
| 20260901043059 | 60 | 0 | 0.0 | 0.0 | 0.00 | 0.00 | 0.00 | 86 | 1008.9 |
| 20260901042527 | 60 | 0 | 0.0 | 0.0 | 0.00 | 0.00 | 0.00 | 85 | 1008.9 |
| 20260901042027 | 61 | 0 | 0.0 | 0.0 | 0.00 | 0.00 | 0.00 | 85 | 1008.9 |
| 20260901041550 | 61 | 0 | 0.0 | 0.0 | 0.00 | 0.00 | 0.00 | 84 | 1008.9 |
| 20260901041024 | 61 | 0 | 0.0 | 0.0 | 0.00 | 0.00 | 0.00 | 83 | 1008.8 |
| 20260901040529 | 62 | 0 | 0.0 | 0.0 | 0.00 | 0.00 | 0.00 | 82 | 1008.7 |
| 20260901040055 | 62 | 0 | 0.0 | 1.0 | 0.00 | 0.00 | 0.00 | 82 | 1008.6 |
| 20260901035525 | 63 | 0 | 0.0 | 1.0 | 0.00 | 0.00 | 0.00 | 82 | 1008.7 |
| 20260901035029 | 63 | 0 | 0.0 | 1.0 | 0.00 | 0.00 | 0.00 | 81 | 1008.6 |
| 20260901034552 | 63 | 0 | 0.0 | 1.0 | 0.00 | 0.00 | 0.00 | 81 | 1008.5 |
| 20260901034030 | 64 | 0 | 0.0 | 1.0 | 0.00 | 0.00 | 0.00 | 80 | 1008.5 |
| 20260901033524 | 65 | 42 | 0.0 | 1.0 | 0.00 | 0.00 | 0.00 | 78 | 1008.3 |
| 20260901033050 | 65 | 0 | 0.0 | 1.0 | 0.00 | 0.00 | 0.00 | 76 | 1008.2 |
| 20260901032525 | 66 | 38 | 0.0 | 1.0 | 0.00 | 0.00 | 0.00 | 76 | 1008.1 |
| 20260901032029 | 66 | 0 | 0.0 | 0.0 | 0.00 | 0.00 | 0.00 | 75 | 1008.2 |
| 20260901031547 | 67 | 0 | 0.0 | 0.0 | 0.00 | 0.00 | 0.00 | 74 | 1008.1 |
| 20260901031027 | 67 | 0 | 0.0 | 0.0 | 0.00 | 0.00 | 0.00 | 73 | 1008.1 |
| 20260901030527 | 68 | 0 | 0.0 | 1.0 | 0.00 | 0.00 | 0.00 | 71 | 1008.0 |
| 20260901030054 | 69 | 0 | 0.0 | 1.0 | 0.00 | 0.00 | 0.00 | 72 | 1008.0 |
| 20260901025529 | 70 | 38 | 0.0 | 1.0 | 0.00 | 0.00 | 0.00 | 70 | 1007.9 |
| 20260901025029 | 71 | 0 | 0.0 | 1.0 | 0.00 | 0.00 | 0.00 | 67 | 1007.9 |
| 20260901024554 | 72 | 0 | 0.0 | 1.0 | 0.00 | 0.00 | 0.00 | 65 | 1007.9 |
| 20260901024031 | 73 | 0 | 0.0 | 1.0 | 0.00 | 0.00 | 0.00 | 63 | 1007.7 |
| 20260901023530 | 74 | 0 | 0.0 | 1.0 | 0.00 | 0.00 | 0.00 | 60 | 1007.6 |
| 20260901023048 | 75 | 0 | 0.0 | 1.0 | 0.00 | 0.00 | 0.00 | 57 | 1007.7 |
| 20260901022528 | 77 | 0 | 0.0 | 1.0 | 0.00 | 0.00 | 0.00 | 54 | 1007.6 |
| 20260901022029 | 78 | 0 | 0.0 | 2.0 | 0.00 | 0.00 | 0.00 | 52 | 1007.7 |
| 20260901021606 | 79 | 0 | 0.0 | 2.0 | 0.00 | 0.00 | 0.00 | 51 | 1007.7 |
| 20260901021025 | 79 | 33 | 0.0 | 4.0 | 0.00 | 0.00 | 0.00 | 50 | 1007.7 |
| 20260901020525 | 79 | 38 | 1.0 | 4.0 | 0.00 | 0.00 | 0.00 | 48 | 1007.7 |
| 20260901020107 | 80 | 350 | 1.0 | 3.0 | 0.00 | 0.00 | 0.00 | 48 | 1007.8 |
| 20260901015528 | 80 | 17 | 1.0 | 3.0 | 0.00 | 0.00 | 0.00 | 48 | 1007.8 |
| 20260901015027 | 80 | 351 | 0.0 | 5.0 | 0.00 | 0.00 | 0.00 | 47 | 1007.8 |
| 20260901014549 | 80 | 24 | 1.0 | 5.0 | 0.00 | 0.00 | 0.00 | 47 | 1007.8 |
| 20260901014033 | 80 | 342 | 2.0 | 7.0 | 0.00 | 0.00 | 0.00 | 47 | 1007.8 |
| 20260901013529 | 80 | 40 | 3.0 | 8.0 | 0.00 | 0.00 | 0.00 | 47 | 1007.8 |
| 20260901013054 | 80 | 36 | 3.0 | 8.0 | 0.00 | 0.00 | 0.00 | 46 | 1007.9 |
| 20260901012524 | 80 | 360 | 4.0 | 8.0 | 0.00 | 0.00 | 0.00 | 46 | 1007.9 |